When you browse on this site, cookies collect data to enhance your experience and personalize the content and advertising you see.
Visit our Privacy Policy to learn more. By continuing to use the site, you agree to this use of cookies and data.
  • Em Portugal
  • Lista de países
  • Para 7 dias
  • Temperatura da água
  • Mapa do tempo
  • Widgets de tempo
  • user-avatar
    Iniciar Sessão

    Previsão horária em Baku

    Hoje, 23 Setembro, Segunda-feira

    Tempo Temperatura Precipitação Vento Pressão Humidade
    00:00 +19°C° 0 mm 5 m/s 765 mmHg 65%
    01:00 +19°C° 0 mm 5 m/s 764 mmHg 66%
    02:00 +19°C° 0 mm 4 m/s 764 mmHg 67%
    03:00 +19°C° 0 mm 4 m/s 764 mmHg 70%
    04:00 +19°C° 0 mm 4 m/s 764 mmHg 70%
    05:00 +19°C° 0 mm 4 m/s 764 mmHg 71%
    06:00 +19°C° 0 mm 3 m/s 764 mmHg 71%
    07:00 +19°C° 0.4 mm 3 m/s 764 mmHg 73%
    08:00 +19°C° 0.4 mm 3 m/s 764 mmHg 74%
    09:00 +19°C° 0.4 mm 3 m/s 763 mmHg 76%
    10:00 +19°C° 0.6 mm 3 m/s 763 mmHg 77%
    11:00 +19°C° 0.6 mm 3 m/s 763 mmHg 78%
    12:00 +20°C° 0.6 mm 3 m/s 762 mmHg 79%
    13:00 +20°C° 0.1 mm 3 m/s 762 mmHg 75%
    14:00 +21°C° 0.1 mm 3 m/s 761 mmHg 72%
    15:00 +22°C° 0.1 mm 3 m/s 761 mmHg 68%
    16:00 +23°C° 0 mm 2 m/s 761 mmHg 68%
    17:00 +23°C° 0 mm 2 m/s 761 mmHg 69%
    18:00 +23°C° 0 mm 2 m/s 761 mmHg 69%
    19:00 +21°C° 0.2 mm 2 m/s 762 mmHg 72%
    20:00 +20°C° 0.2 mm 3 m/s 762 mmHg 75%
    21:00 +20°C° 0.2 mm 4 m/s 762 mmHg 78%
    22:00 +20°C° 0.2 mm 5 m/s 762 mmHg 75%
    23:00 +20°C° 0.2 mm 6 m/s 762 mmHg 72%

    Amanhã, 24 Setembro, Terça-feira

    Tempo Temperatura Precipitação Vento Pressão Humidade
    00:00 +20°C° 0.2 mm 6 m/s 762 mmHg 69%
    01:00 +20°C° 0 mm 6 m/s 762 mmHg 70%
    02:00 +20°C° 0 mm 5 m/s 762 mmHg 71%
    03:00 +20°C° 0 mm 5 m/s 762 mmHg 72%
    04:00 +20°C° 0 mm 4 m/s 762 mmHg 71%
    05:00 +19°C° 0 mm 4 m/s 762 mmHg 70%
    06:00 +19°C° 0 mm 3 m/s 762 mmHg 70%
    07:00 +20°C° 0 mm 2 m/s 762 mmHg 67%
    08:00 +20°C° 0 mm 2 m/s 762 mmHg 64%
    09:00 +22°C° 0 mm 1 m/s 763 mmHg 61%
    10:00 +23°C° 0 mm 1 m/s 762 mmHg 58%
    11:00 +23°C° 0 mm 2 m/s 762 mmHg 55%
    12:00 +24°C° 0 mm 2 m/s 761 mmHg 52%
    13:00 +24°C° 0 mm 3 m/s 761 mmHg 53%
    14:00 +25°C° 0 mm 3 m/s 761 mmHg 54%
    15:00 +25°C° 0 mm 4 m/s 760 mmHg 55%
    16:00 +23°C° 0 mm 4 m/s 760 mmHg 58%
    17:00 +24°C° 0 mm 3 m/s 760 mmHg 62%
    18:00 +22°C° 0 mm 3 m/s 760 mmHg 65%
    19:00 +22°C° 0 mm 3 m/s 760 mmHg 66%
    20:00 +23°C° 0 mm 2 m/s 760 mmHg 67%
    21:00 +23°C° 0 mm 2 m/s 761 mmHg 69%
    22:00 +23°C° 0 mm 2 m/s 760 mmHg 70%
    23:00 +21°C° 0 mm 2 m/s 760 mmHg 72%

    Depois de amanhã, 25 Setembro, Quarta-feira

    Tempo Temperatura Precipitação Vento Pressão Humidade
    00:00 +21°C° 0 mm 2 m/s 760 mmHg 74%
    01:00 +22°C° 0 mm 1 m/s 759 mmHg 75%
    02:00 +22°C° 0 mm 1 m/s 759 mmHg 76%
    03:00 +19°C° 0 mm 0 m/s 759 mmHg 78%
    04:00 +21°C° 0 mm 1 m/s 759 mmHg 77%
    05:00 +20°C° 0 mm 2 m/s 759 mmHg 77%
    06:00 +20°C° 0 mm 3 m/s 759 mmHg 77%
    07:00 +21°C° 0 mm 3 m/s 759 mmHg 73%
    08:00 +22°C° 0 mm 3 m/s 760 mmHg 68%
    09:00 +23°C° 0 mm 4 m/s 760 mmHg 63%
    10:00 +23°C° 0 mm 4 m/s 760 mmHg 65%
    11:00 +23°C° 0 mm 4 m/s 760 mmHg 67%
    12:00 +22°C° 0 mm 4 m/s 760 mmHg 69%
    13:00 +22°C° 0 mm 4 m/s 760 mmHg 68%
    14:00 +23°C° 0 mm 5 m/s 759 mmHg 67%
    15:00 +23°C° 0 mm 6 m/s 759 mmHg 65%
    16:00 +22°C° 0 mm 6 m/s 760 mmHg 67%
    17:00 +22°C° 0 mm 6 m/s 760 mmHg 69%
    18:00 +21°C° 0 mm 6 m/s 760 mmHg 71%
    19:00 +21°C° 0 mm 6 m/s 760 mmHg 71%
    20:00 +21°C° 0 mm 6 m/s 761 mmHg 70%
    21:00 +21°C° 0 mm 6 m/s 761 mmHg 70%
    22:00 +21°C° 0 mm 6 m/s 761 mmHg 71%
    23:00 +21°C° 0 mm 6 m/s 761 mmHg 72%

    26 Setembro, Quinta-feira

    Tempo Temperatura Precipitação Vento Pressão Humidade
    00:00 +20°C° 0 mm 7 m/s 760 mmHg 73%
    01:00 +20°C° 0 mm 6 m/s 760 mmHg 73%
    02:00 +20°C° 0 mm 6 m/s 760 mmHg 73%
    03:00 +20°C° 0 mm 6 m/s 760 mmHg 73%
    04:00 +20°C° 0 mm 5 m/s 760 mmHg 72%
    05:00 +20°C° 0 mm 5 m/s 760 mmHg 72%
    06:00 +20°C° 0 mm 4 m/s 760 mmHg 72%
    07:00 +20°C° 0 mm 3 m/s 760 mmHg 67%
    08:00 +21°C° 0 mm 3 m/s 761 mmHg 63%
    09:00 +23°C° 0 mm 2 m/s 761 mmHg 59%
    10:00 +24°C° 0 mm 2 m/s 761 mmHg 55%
    11:00 +25°C° 0 mm 2 m/s 760 mmHg 51%
    12:00 +26°C° 0 mm 3 m/s 760 mmHg 48%
    13:00 +26°C° 0 mm 3 m/s 760 mmHg 49%
    14:00 +25°C° 0 mm 2 m/s 759 mmHg 50%
    15:00 +25°C° 0 mm 2 m/s 759 mmHg 51%
    16:00 +25°C° 0 mm 3 m/s 759 mmHg 56%
    17:00 +24°C° 0 mm 3 m/s 759 mmHg 61%
    18:00 +22°C° 0 mm 4 m/s 759 mmHg 66%
    19:00 +22°C° 0 mm 5 m/s 760 mmHg 66%
    20:00 +21°C° 0 mm 6 m/s 760 mmHg 66%
    21:00 +21°C° 0 mm 8 m/s 761 mmHg 65%
    22:00 +21°C° 0 mm 9 m/s 761 mmHg 65%
    23:00 +21°C° 0 mm 10 m/s 761 mmHg 64%

    27 Setembro, Sexta-feira

    Tempo Temperatura Precipitação Vento Pressão Humidade
    00:00 +21°C° 0 mm 11 m/s 761 mmHg 63%
    01:00 +21°C° 0 mm 11 m/s 761 mmHg 64%
    02:00 +21°C° 0 mm 10 m/s 761 mmHg 64%
    03:00 +21°C° 0 mm 10 m/s 761 mmHg 65%
    04:00 +21°C° 0 mm 9 m/s 761 mmHg 65%
    05:00 +19°C° 0 mm 9 m/s 761 mmHg 65%
    06:00 +20°C° 0 mm 8 m/s 761 mmHg 64%
    07:00 +21°C° 0 mm 8 m/s 761 mmHg 62%
    08:00 +21°C° 0 mm 7 m/s 762 mmHg 59%
    09:00 +22°C° 0 mm 7 m/s 762 mmHg 56%
    10:00 +22°C° 0 mm 7 m/s 762 mmHg 54%
    11:00 +23°C° 0 mm 6 m/s 762 mmHg 51%
    12:00 +23°C° 0 mm 6 m/s 761 mmHg 49%
    13:00 +23°C° 0 mm 6 m/s 761 mmHg 49%
    14:00 +23°C° 0 mm 6 m/s 761 mmHg 49%
    15:00 +23°C° 0 mm 5 m/s 760 mmHg 49%
    16:00 +22°C° 0 mm 6 m/s 760 mmHg 52%
    17:00 +22°C° 0 mm 6 m/s 760 mmHg 54%
    18:00 +21°C° 0 mm 6 m/s 760 mmHg 56%
    19:00 +21°C° 0 mm 6 m/s 760 mmHg 57%
    20:00 +21°C° 0 mm 6 m/s 761 mmHg 58%
    21:00 +21°C° 0 mm 6 m/s 761 mmHg 59%
    22:00 +21°C° 0 mm 6 m/s 761 mmHg 60%
    23:00 +21°C° 0 mm 6 m/s 760 mmHg 60%

    28 Setembro, Sábado

    Tempo Temperatura Precipitação Vento Pressão Humidade
    00:00 +20°C° 0 mm 6 m/s 760 mmHg 61%
    01:00 +20°C° 0 mm 6 m/s 760 mmHg 60%
    02:00 +20°C° 0 mm 6 m/s 759 mmHg 60%
    03:00 +20°C° 0 mm 6 m/s 759 mmHg 59%
    04:00 +20°C° 0 mm 6 m/s 759 mmHg 61%
    05:00 +20°C° 0 mm 6 m/s 759 mmHg 63%
    06:00 +20°C° 0 mm 6 m/s 759 mmHg 65%
    07:00 +21°C° 0 mm 6 m/s 759 mmHg 62%
    08:00 +21°C° 0 mm 7 m/s 758 mmHg 59%
    09:00 +22°C° 0 mm 8 m/s 758 mmHg 57%
    10:00 +22°C° 0 mm 8 m/s 758 mmHg 55%
    11:00 +23°C° 0 mm 7 m/s 758 mmHg 54%
    12:00 +23°C° 0 mm 7 m/s 758 mmHg 52%
    13:00 +23°C° 0 mm 7 m/s 757 mmHg 55%
    14:00 +23°C° 0 mm 7 m/s 757 mmHg 57%
    15:00 +23°C° 0 mm 7 m/s 757 mmHg 59%
    16:00 +22°C° 0 mm 9 m/s 757 mmHg 61%
    17:00 +21°C° 0 mm 11 m/s 758 mmHg 63%
    18:00 +20°C° 0 mm 13 m/s 758 mmHg 65%
    19:00 +20°C° 0 mm 14 m/s 759 mmHg 65%
    20:00 +19°C° 0 mm 15 m/s 760 mmHg 64%
    21:00 +19°C° 0 mm 16 m/s 760 mmHg 64%
    22:00 +19°C° 0 mm 15 m/s 761 mmHg 64%
    23:00 +18°C° 0 mm 14 m/s 761 mmHg 64%
    Mostrar mais